Weather History for KAIG - March, 2014

Change the Weather History Date:

Saturday, March 22, 2014

  Actual Average Record
Temperature  
Mean Temperature 20 °F -  
Max Temperature 32 °F 37 °F 66 °F (2012)
Min Temperature 6 °F 17 °F -9 °F (1989)
Degree Days  
Heating Degree Days 46    
Moisture  
Dew Point 11 °F    
Average Humidity 68    
Maximum Humidity 92    
Minimum Humidity 51    
Precipitation  
Precipitation 0.65 in - - ()
Sea Level Pressure  
Sea Level Pressure 30.12 in    
Wind  
Wind Speed 14 mph (NW)    
Max Wind Speed 20 mph    
Max Gust Speed 29 mph    
Visibility 10 miles    
Events Snow    
Averages and records for this station are not official NWS values.
T = Trace of Precipitation, MM = Missing Value Source: NWS Daily Summary

Daily Weather History Graph

Daily Weather History Graph

Search for Another Location

Airport or City:

Trip Planner

Search our weather history database for the weather conditions in past years. The results will help you decide how hot, cold, wet, or windy it might be!

Date:

Astronomy

Mar. 22, 2014 Rise Set
Actual Time 6:55 AM CDT 7:11 PM CDT
Civil Twilight 6:26 AM CDT 7:41 PM CDT
Nautical Twilight 5:51 AM CDT 8:15 PM CDT
Astronomical Twilight 5:16 AM CDT 8:51 PM CDT
Moon 12:43 AM CDT 10:25 AM CDT
Length of Visible Light 13h 14m
Length of Day
12h 15m
Waning Gibbous, 65% of the Moon is Illuminated
Mar 22
Waning Gibbous
Mar 23
Last Quarter
Mar 30
New
Apr 7
First Quarter
Apr 15
Full

Hourly Weather History & Observations

Time (CDT) Temp. Windchill Dew Point Humidity Pressure Visibility Wind Dir Wind Speed Gust Speed Precip Events Conditions
12:15 AM 31.8 °F 22.8 °F 29.7 °F 92% 29.83 in 7.0 mi NW 11.5 mph 16.1 mph N/A   Overcast
12:35 AM 32.0 °F 23.0 °F 29.3 °F 90% 29.84 in 10.0 mi NW 11.5 mph - N/A   Overcast
12:55 AM 32.0 °F 23.6 °F 28.4 °F 87% 29.85 in 10.0 mi NW 10.4 mph 18.4 mph N/A   Overcast
1:15 AM 32.0 °F 22.1 °F 27.5 °F 83% 29.86 in 10.0 mi NNW 13.8 mph 19.6 mph N/A   Overcast
1:35 AM 32.0 °F 20.1 °F 26.4 °F 80% 29.87 in 10.0 mi NNW 19.6 mph 23.0 mph 0.01 in   Overcast
1:55 AM 31.6 °F 21.2 °F 26.4 °F 81% 29.87 in 10.0 mi NNW 15.0 mph - 0.01 in   Overcast
2:15 AM 31.5 °F 20.1 °F 26.6 °F 82% 29.89 in 10.0 mi NW 17.3 mph 24.2 mph 0.08 in   Overcast
2:35 AM 31.1 °F 20.5 °F 26.2 °F 82% 29.90 in 10.0 mi NW 15.0 mph 20.7 mph 0.16 in   Overcast
2:55 AM 30.6 °F 19.4 °F 26.4 °F 85% 29.91 in 10.0 mi NW 16.1 mph 23.0 mph 0.18 in   Overcast
3:15 AM 30.0 °F 18.7 °F 26.1 °F 85% 29.92 in 10.0 mi NW 16.1 mph 24.2 mph 0.03 in   Overcast
3:35 AM 29.7 °F 17.8 °F 25.2 °F 83% 29.92 in 10.0 mi NNW 17.3 mph 26.5 mph 0.05 in   Overcast
3:55 AM 29.1 °F 16.7 °F 23.9 °F 81% 29.93 in 10.0 mi NNW 18.4 mph 23.0 mph 0.07 in   Overcast
4:15 AM 28.0 °F 15.3 °F 23.5 °F 83% 29.94 in 10.0 mi NW 18.4 mph 25.3 mph 0.05 in   Overcast
4:35 AM 26.6 °F 13.1 °F 21.0 °F 79% 29.95 in 10.0 mi NNW 19.6 mph 28.8 mph 0.08 in   Overcast
4:55 AM 25.3 °F 12.6 °F 19.9 °F 80% 29.96 in 10.0 mi North 16.1 mph 25.3 mph 0.08 in   Overcast
5:15 AM 24.8 °F 12.4 °F 19.6 °F 81% 29.97 in 10.0 mi NW 15.0 mph - N/A   Overcast
5:35 AM 23.9 °F 9.9 °F 18.3 °F 79% 29.98 in 10.0 mi NW 18.4 mph 24.2 mph 0.02 in   Overcast
5:55 AM 23.2 °F 9.4 °F 17.8 °F 80% 30.00 in 10.0 mi NNW 17.3 mph 23.0 mph 0.06 in   Overcast
6:15 AM 22.6 °F 8.7 °F 17.6 °F 81% 30.01 in 10.0 mi NNW 17.3 mph 23.0 mph 0.02 in   Overcast
6:35 AM 21.6 °F 6.5 °F 17.1 °F 83% 30.02 in 10.0 mi NNW 19.6 mph 25.3 mph 0.02 in   Overcast
6:55 AM 21.0 °F 7.1 °F 15.8 °F 80% 30.03 in 10.0 mi NW 16.1 mph 23.0 mph 0.02 in   Overcast
7:15 AM 18.9 °F 2.9 °F 12.2 °F 75% 30.05 in 10.0 mi NW 19.6 mph 26.5 mph N/A   Overcast
7:35 AM 15.8 °F 0.9 °F 8.8 °F 74% 30.08 in 10.0 mi NW 15.0 mph 26.5 mph N/A Snow Light Snow
7:55 AM 16.2 °F 3.2 °F 9.3 °F 74% 30.09 in 10.0 mi NW 11.5 mph 19.6 mph N/A Snow Light Snow
8:15 AM 16.5 °F 3.0 °F 9.3 °F 73% 30.09 in 10.0 mi NNW 12.7 mph 19.6 mph N/A Snow Light Snow
8:35 AM 16.2 °F 2.5 °F 8.6 °F 72% 30.10 in 10.0 mi NW 12.7 mph - N/A Snow Light Snow
8:55 AM 16.3 °F 3.4 °F 9.5 °F 74% 30.11 in 7.0 mi NW 11.5 mph 19.6 mph N/A Snow Light Snow
9:15 AM 16.5 °F 1.3 °F 9.1 °F 73% 30.13 in 7.0 mi NW 16.1 mph 20.7 mph N/A Snow Light Snow
9:35 AM 16.7 °F 2.6 °F 7.9 °F 68% 30.14 in 10.0 mi NW 13.8 mph 19.6 mph N/A   Overcast
9:55 AM 16.5 °F 2.4 °F 7.0 °F 66% 30.14 in 10.0 mi NW 13.8 mph 17.3 mph N/A   Overcast
10:15 AM 17.2 °F 4.5 °F 6.1 °F 62% 30.15 in 10.0 mi NNW 11.5 mph 19.6 mph N/A   Scattered Clouds
10:35 AM 17.8 °F 3.4 °F 6.3 °F 61% 30.15 in 10.0 mi NNW 15.0 mph - N/A   Scattered Clouds
10:55 AM 18.3 °F 4.6 °F 6.4 °F 60% 30.15 in 10.0 mi NW 13.8 mph 19.6 mph N/A   Mostly Cloudy
11:15 AM 18.3 °F 7.3 °F 6.3 °F 59% 30.16 in 10.0 mi NW 9.2 mph 17.3 mph N/A   Mostly Cloudy
11:35 AM 19.2 °F 8.4 °F 7.0 °F 59% 30.16 in 10.0 mi NNW 9.2 mph - N/A   Mostly Cloudy
11:55 AM 19.6 °F 4.7 °F 7.2 °F 59% 30.16 in 10.0 mi NNW 17.3 mph 21.9 mph 0.01 in   Mostly Cloudy
12:15 PM 19.4 °F 6.0 °F 8.8 °F 63% 30.16 in 10.0 mi NW 13.8 mph 18.4 mph N/A   Mostly Cloudy
12:35 PM 20.8 °F 9.0 °F 8.6 °F 59% 30.17 in 10.0 mi NW 11.5 mph 16.1 mph 0.10 in   Overcast
12:55 PM 20.8 °F 9.0 °F 8.4 °F 59% 30.17 in 10.0 mi NW 11.5 mph 18.4 mph 0.22 in   Mostly Cloudy
1:15 PM 20.5 °F 7.4 °F 7.2 °F 56% 30.17 in 10.0 mi NW 13.8 mph - N/A   Scattered Clouds
1:35 PM 20.3 °F 7.2 °F 6.6 °F 56% 30.17 in 10.0 mi NW 13.8 mph 17.3 mph N/A   Scattered Clouds
1:55 PM 20.7 °F 7.6 °F 6.4 °F 54% 30.17 in 10.0 mi NW 13.8 mph 18.4 mph N/A   Scattered Clouds
2:15 PM 20.8 °F 8.4 °F 6.8 °F 55% 30.17 in 10.0 mi NW 12.7 mph 19.6 mph N/A   Scattered Clouds
2:35 PM 21.0 °F 7.6 °F 6.8 °F 54% 30.17 in 10.0 mi WNW 15.0 mph 19.6 mph N/A   Scattered Clouds
2:55 PM 20.8 °F 7.9 °F 6.1 °F 53% 30.17 in 10.0 mi WNW 13.8 mph - N/A   Clear
3:15 PM 20.7 °F 8.8 °F 5.7 °F 53% 30.18 in 10.0 mi NW 11.5 mph 19.6 mph N/A   Clear
3:35 PM 21.0 °F 7.1 °F 5.4 °F 51% 30.18 in 10.0 mi NW 16.1 mph - N/A   Clear
3:55 PM 20.8 °F 7.3 °F 6.1 °F 53% 30.18 in 10.0 mi NW 15.0 mph - N/A   Clear
4:15 PM 21.0 °F 7.6 °F 6.6 °F 54% 30.18 in 10.0 mi NW 15.0 mph 20.7 mph N/A   Scattered Clouds
4:35 PM 20.3 °F 9.8 °F 4.8 °F 51% 30.19 in 10.0 mi NW 9.2 mph 19.6 mph N/A   Clear
4:55 PM 20.1 °F 6.9 °F 4.5 °F 51% 30.19 in 10.0 mi NW 13.8 mph 19.6 mph N/A   Clear
5:15 PM 19.2 °F 7.7 °F 3.7 °F 51% 30.20 in 10.0 mi NW 10.4 mph - N/A   Clear
5:35 PM 19.4 °F 6.0 °F 4.6 °F 53% 30.20 in 10.0 mi NW 13.8 mph - N/A   Scattered Clouds
5:55 PM 18.3 °F 4.6 °F 3.9 °F 53% 30.21 in 10.0 mi NNW 13.8 mph - N/A   Scattered Clouds
6:15 PM 18.1 °F 5.6 °F 4.1 °F 54% 30.22 in 10.0 mi NW 11.5 mph 19.6 mph N/A   Mostly Cloudy
6:35 PM 17.1 °F 5.8 °F 3.9 °F 56% 30.22 in 10.0 mi NW 9.2 mph - N/A   Scattered Clouds
6:55 PM 16.0 °F 0.6 °F 3.0 °F 57% 30.24 in 10.0 mi NW 16.1 mph 20.7 mph N/A   Scattered Clouds
7:15 PM 14.9 °F 0.9 °F 3.2 °F 60% 30.25 in 10.0 mi NNW 12.7 mph - N/A   Clear
7:35 PM 14.5 °F 2.7 °F 2.7 °F 59% 30.26 in 10.0 mi NNW 9.2 mph - N/A   Scattered Clouds
7:55 PM 14.0 °F 2.0 °F 2.8 °F 61% 30.27 in 10.0 mi NW 9.2 mph - N/A   Scattered Clouds
8:15 PM 13.1 °F 0.1 °F 2.7 °F 63% 30.28 in 10.0 mi NNW 10.4 mph - N/A   Clear
8:35 PM 12.2 °F 0.7 °F 3.2 °F 67% 30.29 in 10.0 mi NNW 8.1 mph - N/A   Scattered Clouds
8:55 PM 11.3 °F -1.3 °F 3.6 °F 71% 30.29 in 10.0 mi North 9.2 mph - N/A   Scattered Clouds
9:15 PM 10.8 °F -1.1 °F 3.4 °F 72% 30.30 in 10.0 mi NNW 8.1 mph - N/A   Clear
9:35 PM 9.9 °F -2.2 °F 3.4 °F 75% 30.30 in 10.0 mi NNW 8.1 mph - N/A   Clear
9:55 PM 9.9 °F -3.1 °F 2.3 °F 71% 30.31 in 10.0 mi NNW 9.2 mph - N/A   Clear
10:15 PM 9.1 °F -4.0 °F 1.2 °F 70% 30.31 in 10.0 mi NNW 9.2 mph - N/A   Clear
10:35 PM 8.8 °F -5.3 °F 0.5 °F 69% 30.31 in 10.0 mi NNW 10.4 mph 16.1 mph N/A   Clear
10:55 PM 8.2 °F -4.1 °F 0.1 °F 70% 30.32 in 10.0 mi NNW 8.1 mph - N/A   Clear
11:15 PM 8.2 °F -3.0 °F -0.0 °F 69% 30.32 in 10.0 mi NW 6.9 mph - N/A   Clear
11:35 PM 7.5 °F -6.0 °F -0.6 °F 70% 30.32 in 10.0 mi NW 9.2 mph - N/A   Clear
11:55 PM 6.8 °F -4.8 °F -0.9 °F 71% 30.33 in 10.0 mi NW 6.9 mph - N/A   Clear